EUTELSAT 48D (33460 NORAD) Tracking and Keplerian Element Data

This shows tracking and keplerian element data for the satellite.

Feedback or suggestion? Click here.




ElementValue
Catalog33460
NameEUTELSAT 48D
Epoch Orbit5382
Epoch Day238.89709584
Epoch Year2023
RAAN86.5094
Inclination2.6536
Eccentricity0.0003592
Argument of Perigee17.6137
Mean Anonmoly251.5054
Mean Motion0.98759486
Decay Rate5.2E-07
L11 33460U 08065B 23238.89709584 .00000052 00000+0 00000+0 0 9998
L22 33460 2.6536 86.5094 0003592 17.6137 251.5054 0.98759486 53822



Live tracking and technical data element details for EUTELSAT 48D (NORAD 33460). EUTELSAT 48D can be tracked NOW for your location showing map with azimuth and elevation plus other details from your city location.







IsCatalogInMostPopularTable: catalog: 33460, numindb: 368
Update: records affected: 1



GetName: 33460 EUTELSAT 48D

Hit Count: updated at: Sat, 24 May 2025 16:34:41 GMT